QPF
0.03 0.04 0.04 0.03 0.03 0.03 0.02 0.01 0.00 0.00 0.00 0.00 0.00 0.00 0.00 0.00 0.00 0.00 0.00 0.01 0.02 0.03 0.03 0.03 0.03 0.03 0.03 0.03 0.02 0.02 0.02 0.02 0.01 0.01 0.01 0.00 0.00 0.00 0.00 0.00 0.01 0.00 0.00
0.02 0.02 0.02 0.02 0.01 0.01 0.02 0.01 0.01 0.00 0.00 0.00 0.00 0.00 0.00 0.00 0.00 0.00 0.00 0.01 0.01 0.02 0.03 0.04 0.04 0.04 0.04 0.04 0.04 0.03 0.03 0.03 0.03 0.03 0.03 0.02 0.02 0.02 0.02 0.02 0.02 0.02 0.01
0.01 0.01 0.01 0.01 0.00 0.00 0.00 0.00 0.00 0.00 0.00 0.00 0.00 0.00 0.00 0.00 0.00 0.00 0.00 0.00 0.01 0.02 0.03 0.03 0.03 0.03 0.03 0.04 0.04 0.04 0.04 0.03 0.03 0.03 0.03 0.03 0.04 0.04 0.04 0.05 0.05 0.06 0.04
0.00 0.00 0.00 0.00 0.00 0.00 0.00 0.00 0.00 0.00 0.00 0.00 0.00 0.00 0.00 0.00 0.00 0.00 0.00 0.00 0.00 0.01 0.02 0.03 0.03 0.03 0.03 0.03 0.03 0.04 0.05 0.05 0.04 0.04 0.03 0.03 0.04 0.04 0.05 0.05 0.07 0.08 0.08
0.00 0.00 0.00 0.00 0.00 0.00 0.00 0.00 0.00 0.00 0.00 0.00 0.00 0.00 0.00 0.00 0.00 0.00 0.00 0.00 0.00 0.00 0.00 0.01 0.03 0.03 0.03 0.03 0.03 0.04 0.04 0.05 0.05 0.05 0.04 0.03 0.03 0.03 0.02 0.02 0.04 0.06 0.08
0.00 0.00 0.00 0.00 0.00 0.00 0.00 0.00 0.00 0.00 0.00 0.00 0.00 0.00 0.00 0.00 0.00 0.00 0.00 0.00 0.00 0.00 0.00 0.00 0.00 0.01 0.01 0.01 0.01 0.01 0.02 0.02 0.04 0.05 0.04 0.05 0.04 0.03 0.02 0.01 0.02 0.03 0.05
0.01 0.00 0.00 0.00 0.00 0.00 0.00 0.00 0.00 0.00 0.00 0.00 0.00 0.00 0.00 0.00 0.00 0.00 0.00 0.00 0.00 0.00 0.00 0.00 0.00 0.00 0.00 0.00 0.00 0.00 0.00 0.01 0.02 0.02 0.02 0.03 0.02 0.01 0.01 0.00 0.01 0.01 0.02
0.02 0.02 0.01 0.01 0.01 0.00 0.00 0.00 0.00 0.00 0.00 0.00 0.00 0.00 0.00 0.00 0.00 0.00 0.00 0.00 0.00 0.00 0.00 0.00 0.00 0.00 0.00 0.00 0.00 0.00 0.00 0.00 0.01 0.01 0.01 0.02 0.02 0.01 0.00 0.00 0.00 0.00 0.01
0.05 0.03 0.02 0.01 0.01 0.00 0.00 0.00 0.00 0.00 0.00 0.00 0.00 0.00 0.00 0.00 0.00 0.00 0.00 0.00 0.00 0.00 0.00 0.00 0.00 0.00 0.00 0.00 0.00 0.00 0.00 0.00 0.00 0.00 0.01 0.01 0.01 0.01 0.00 0.00 0.00 0.01 0.01
0.05 0.03 0.01 0.01 0.00 0.00 0.00 0.00 0.00 0.00 0.00 0.00 0.00 0.00 0.00 0.00 0.00 0.00 0.00 0.00 0.00 0.00 0.00 0.00 0.00 0.00 0.00 0.00 0.00 0.00 0.00 0.00 0.00 0.00 0.00 0.01 0.01 0.00 0.00 0.00 0.01 0.01 0.02
0.03 0.02 0.01 0.00 0.00 0.00 0.00 0.00 0.00 0.00 0.00 0.00 0.00 0.00 0.00 0.00 0.00 0.00 0.00 0.00 0.00 0.00 0.00 0.00 0.00 0.00 0.00 0.00 0.00 0.00 0.00 0.00 0.00 0.00 0.00 0.00 0.00 0.00 0.01 0.01 0.01 0.02 0.02
0.01 0.01 0.00 0.00 0.00 0.00 0.00 0.00 0.00 0.00 0.00 0.00 0.00 0.00 0.00 0.00 0.00 0.00 0.00 0.00 0.00 0.00 0.00 0.00 0.00 0.00 0.00 0.00 0.00 0.00 0.00 0.00 0.01 0.01 0.01 0.01 0.01 0.01 0.01 0.01 0.01 0.02 0.03
0.00 0.00 0.00 0.00 0.00 0.00 0.00 0.00 0.00 0.00 0.00 0.00 0.00 0.00 0.00 0.00 0.00 0.00 0.00 0.00 0.00 0.00 0.00 0.00 0.00 0.00 0.00 0.00 0.00 0.00 0.00 0.00 0.00 0.00 0.00 0.00 0.00 0.00 0.00 0.00 0.01 0.01 0.02
0.00 0.00 0.00 0.00 0.00 0.00 0.00 0.00 0.00 0.00 0.00 0.00 0.00 0.00 0.00 0.00 0.00 0.00 0.00 0.00 0.00 0.00 0.00 0.00 0.00 0.00 0.00 0.00 0.00 0.00 0.00 0.00 0.00 0.01 0.01 0.01 0.01 0.01 0.01 0.01 0.01 0.01 0.01
0.00 0.00 0.00 0.00 0.00 0.00 0.00 0.00 0.00 0.00 0.00 0.00 0.00 0.00 0.00 0.00 0.00 0.00 0.00 0.01 0.01 0.01 0.00 0.00 0.00 0.00 0.00 0.00 0.00 0.00 0.00 0.00 0.01 0.01 0.01 0.02 0.01 0.01 0.01 0.01 0.01 0.01 0.01
0.00 0.00 0.00 0.00 0.00 0.00 0.00 0.00 0.00 0.00 0.00 0.00 0.00 0.00 0.00 0.00 0.00 0.00 0.00 0.01 0.01 0.01 0.01 0.00 0.00 0.00 0.00 0.00 0.00 0.00 0.00 0.00 0.01 0.01 0.01 0.02 0.02 0.02 0.02 0.02 0.01 0.01 0.01
0.00 0.00 0.00 0.00 0.00 0.00 0.00 0.00 0.00 0.00 0.00 0.00 0.00 0.00 0.00 0.00 0.00 0.00 0.00 0.00 0.00 0.01 0.01 0.00 0.00 0.00 0.00 0.00 0.00 0.00 0.00 0.00 0.00 0.01 0.02 0.03 0.04 0.04 0.03 0.03 0.03 0.02 0.02
0.00 0.00 0.00 0.00 0.00 0.00 0.00 0.00 0.00 0.00 0.00 0.00 0.00 0.00 0.00 0.00 0.00 0.00 0.00 0.00 0.00 0.00 0.00 0.00 0.00 0.00 0.00 0.00 0.00 0.00 0.00 0.00 0.01 0.02 0.04 0.05 0.05 0.05 0.04 0.03 0.03 0.02 0.01
0.00 0.00 0.00 0.00 0.00 0.00 0.00 0.00 0.00 0.00 0.00 0.00 0.00 0.00 0.00 0.00 0.00 0.00 0.00 0.00 0.00 0.00 0.00 0.00 0.00 0.00 0.00 0.00 0.00 0.00 0.01 0.02 0.03 0.04 0.05 0.05 0.05 0.04 0.03 0.02 0.01 0.01 0.00
0.01 0.01 0.00 0.00 0.00 0.00 0.00 0.00 0.00 0.00 0.00 0.00 0.00 0.00 0.00 0.00 0.00 0.01 0.00 0.00 0.00 0.00 0.00 0.01 0.01 0.00 0.00 0.00 0.01 0.01 0.02 0.02 0.03 0.04 0.04 0.04 0.03 0.02 0.01 0.00 0.00 0.00 0.00
0.01 0.00 0.00 0.00 0.00 0.00 0.00 0.00 0.00 0.00 0.00 0.00 0.00 0.00 0.00 0.01 0.02 0.02 0.01 0.01 0.02 0.02 0.02 0.02 0.02 0.01 0.01 0.01 0.01 0.01 0.01 0.00 0.00 0.00 0.01 0.01 0.01 0.00 0.00 0.01 0.00 0.00 0.00
0.00 0.00 0.00 0.00 0.00 0.00 0.00 0.00 0.00 0.00 0.00 0.00 0.00 0.00 0.01 0.01 0.01 0.01 0.02 0.02 0.03 0.03 0.03 0.03 0.02 0.02 0.01 0.01 0.01 0.01 0.01 0.01 0.00 0.00 0.00 0.00 0.00 0.00 0.00 0.01 0.02 0.02 0.02
0.00 0.00 0.00 0.00 0.00 0.00 0.00 0.00 0.00 0.00 0.00 0.00 0.00 0.00 0.00 0.00 0.00 0.01 0.01 0.01 0.01 0.02 0.03 0.03 0.03 0.01 0.01 0.01 0.01 0.02 0.02 0.02 0.01 0.00 0.01 0.01 0.00 0.01 0.01 0.03 0.05 0.05 0.04
0.00 0.00 0.00 0.00 0.00 0.00 0.00 0.00 0.00 0.00 0.00 0.00 0.00 0.00 0.00 0.00 0.01 0.01 0.01 0.00 0.00 0.00 0.01 0.01 0.01 0.01 0.01 0.02 0.03 0.04 0.04 0.04 0.03 0.01 0.03 0.04 0.02 0.02 0.02 0.04 0.06 0.06 0.05
0.00 0.00 0.00 0.00 0.00 0.00 0.00 0.00 0.00 0.00 0.00 0.00 0.00 0.00 0.00 0.01 0.01 0.01 0.01 0.01 0.01 0.01 0.01 0.02 0.03 0.04 0.05 0.06 0.08 0.09 0.09 0.09 0.07 0.04 0.05 0.07 0.06 0.04 0.03 0.03 0.04 0.05 0.04
0.00 0.00 0.00 0.00 0.00 0.00 0.00 0.00 0.00 0.00 0.00 0.00 0.00 0.00 0.01 0.01 0.01 0.01 0.01 0.03 0.03 0.02 0.02 0.03 0.04 0.05 0.06 0.08 0.09 0.09 0.09 0.09 0.08 0.09 0.08 0.08 0.06 0.04 0.03 0.02 0.02 0.02 0.02
MSLP
1016.90 1017.07 1017.16 1017.21 1017.23 1017.24 1017.26 1017.29 1017.33 1017.36 1017.38 1017.37 1017.35 1017.32 1017.30 1017.29 1017.32 1017.37 1017.44 1017.51 1017.57 1017.60 1017.59 1017.56 1017.51 1017.48 1017.47 1017.50 1017.57 1017.69 1017.82 1017.97 1018.11 1018.23 1018.34 1018.43 1018.52 1018.61 1018.71 1018.83 1018.95 1019.08 1019.21
1016.61 1016.80 1016.94 1017.04 1017.12 1017.19 1017.26 1017.33 1017.39 1017.44 1017.47 1017.47 1017.46 1017.44 1017.42 1017.41 1017.42 1017.45 1017.48 1017.51 1017.53 1017.52 1017.50 1017.46 1017.42 1017.39 1017.39 1017.41 1017.46 1017.53 1017.63 1017.73 1017.84 1017.95 1018.07 1018.19 1018.32 1018.46 1018.60 1018.75 1018.89 1019.02 1019.13
1016.37 1016.59 1016.79 1016.98 1017.14 1017.29 1017.43 1017.56 1017.66 1017.73 1017.78 1017.79 1017.79 1017.76 1017.74 1017.71 1017.68 1017.66 1017.63 1017.60 1017.55 1017.50 1017.45 1017.39 1017.34 1017.31 1017.30 1017.31 1017.33 1017.37 1017.42 1017.47 1017.55 1017.63 1017.75 1017.89 1018.05 1018.24 1018.43 1018.62 1018.79 1018.93 1019.04
1016.26 1016.52 1016.79 1017.05 1017.31 1017.56 1017.78 1017.97 1018.12 1018.22 1018.28 1018.31 1018.30 1018.28 1018.23 1018.18 1018.11 1018.02 1017.92 1017.81 1017.70 1017.58 1017.47 1017.39 1017.32 1017.28 1017.26 1017.25 1017.25 1017.24 1017.24 1017.24 1017.27 1017.32 1017.41 1017.55 1017.74 1017.96 1018.19 1018.43 1018.63 1018.79 1018.91
1016.32 1016.61 1016.94 1017.28 1017.63 1017.96 1018.26 1018.51 1018.70 1018.83 1018.91 1018.94 1018.94 1018.91 1018.86 1018.77 1018.67 1018.52 1018.36 1018.17 1017.97 1017.79 1017.63 1017.50 1017.40 1017.35 1017.31 1017.28 1017.25 1017.21 1017.15 1017.10 1017.06 1017.06 1017.11 1017.23 1017.42 1017.65 1017.91 1018.18 1018.41 1018.59 1018.71
1016.54 1016.86 1017.23 1017.64 1018.05 1018.45 1018.80 1019.09 1019.31 1019.47 1019.55 1019.60 1019.61 1019.59 1019.53 1019.44 1019.31 1019.13 1018.91 1018.66 1018.40 1018.15 1017.92 1017.75 1017.62 1017.54 1017.48 1017.43 1017.37 1017.29 1017.18 1017.07 1016.96 1016.90 1016.90 1016.97 1017.13 1017.35 1017.61 1017.88 1018.12 1018.31 1018.43
1016.91 1017.24 1017.63 1018.07 1018.52 1018.95 1019.33 1019.64 1019.87 1020.03 1020.13 1020.19 1020.22 1020.22 1020.18 1020.11 1019.98 1019.79 1019.54 1019.25 1018.94 1018.63 1018.35 1018.13 1017.96 1017.85 1017.77 1017.69 1017.60 1017.48 1017.33 1017.15 1016.98 1016.84 1016.76 1016.77 1016.87 1017.05 1017.29 1017.55 1017.78 1017.97 1018.09
1017.35 1017.68 1018.08 1018.52 1018.97 1019.40 1019.79 1020.09 1020.31 1020.47 1020.58 1020.65 1020.70 1020.73 1020.74 1020.71 1020.61 1020.43 1020.19 1019.88 1019.53 1019.18 1018.86 1018.58 1018.38 1018.23 1018.11 1018.01 1017.88 1017.72 1017.52 1017.29 1017.05 1016.84 1016.68 1016.62 1016.65 1016.77 1016.95 1017.17 1017.39 1017.56 1017.66
1017.82 1018.14 1018.51 1018.94 1019.37 1019.78 1020.13 1020.41 1020.61 1020.75 1020.85 1020.94 1021.02 1021.10 1021.16 1021.18 1021.13 1020.99 1020.76 1020.45 1020.09 1019.71 1019.34 1019.03 1018.77 1018.58 1018.43 1018.29 1018.13 1017.93 1017.69 1017.40 1017.11 1016.82 1016.59 1016.45 1016.40 1016.45 1016.58 1016.76 1016.94 1017.09 1017.17
1018.26 1018.56 1018.91 1019.30 1019.70 1020.06 1020.37 1020.60 1020.77 1020.89 1020.99 1021.08 1021.19 1021.31 1021.41 1021.48 1021.49 1021.39 1021.19 1020.89 1020.52 1020.12 1019.72 1019.36 1019.06 1018.82 1018.62 1018.44 1018.24 1018.01 1017.72 1017.40 1017.05 1016.71 1016.42 1016.21 1016.09 1016.08 1016.15 1016.28 1016.42 1016.55 1016.62
1018.64 1018.92 1019.25 1019.61 1019.96 1020.28 1020.53 1020.72 1020.85 1020.94 1021.02 1021.11 1021.23 1021.37 1021.51 1021.62 1021.66 1021.60 1021.42 1021.13 1020.76 1020.34 1019.91 1019.51 1019.16 1018.87 1018.62 1018.39 1018.16 1017.89 1017.57 1017.21 1016.83 1016.45 1016.12 1015.85 1015.68 1015.62 1015.64 1015.73 1015.84 1015.95 1016.02
1018.94 1019.22 1019.54 1019.87 1020.18 1020.45 1020.66 1020.81 1020.89 1020.95 1021.00 1021.07 1021.18 1021.32 1021.47 1021.60 1021.65 1021.60 1021.43 1021.15 1020.78 1020.35 1019.89 1019.46 1019.07 1018.73 1018.43 1018.15 1017.87 1017.57 1017.22 1016.84 1016.43 1016.03 1015.67 1015.37 1015.17 1015.06 1015.05 1015.11 1015.21 1015.31 1015.38
1019.19 1019.48 1019.79 1020.10 1020.39 1020.62 1020.80 1020.90 1020.95 1020.96 1020.98 1021.02 1021.10 1021.22 1021.34 1021.44 1021.48 1021.42 1021.25 1020.97 1020.59 1020.15 1019.68 1019.22 1018.80 1018.42 1018.08 1017.76 1017.44 1017.10 1016.72 1016.31 1015.89 1015.48 1015.10 1014.79 1014.57 1014.44 1014.40 1014.44 1014.53 1014.63 1014.71
1019.40 1019.70 1020.02 1020.32 1020.59 1020.81 1020.95 1021.03 1021.04 1021.02 1020.99 1020.99 1021.02 1021.08 1021.15 1021.20 1021.20 1021.11 1020.92 1020.63 1020.25 1019.81 1019.34 1018.87 1018.43 1018.03 1017.65 1017.29 1016.94 1016.56 1016.15 1015.73 1015.29 1014.86 1014.48 1014.16 1013.93 1013.79 1013.73 1013.76 1013.84 1013.94 1014.04
1019.60 1019.93 1020.25 1020.56 1020.82 1021.02 1021.15 1021.19 1021.18 1021.12 1021.05 1020.99 1020.96 1020.95 1020.95 1020.93 1020.86 1020.73 1020.51 1020.20 1019.82 1019.39 1018.94 1018.48 1018.04 1017.63 1017.23 1016.85 1016.45 1016.04 1015.61 1015.15 1014.70 1014.26 1013.87 1013.54 1013.30 1013.14 1013.07 1013.08 1013.15 1013.25 1013.36
1019.84 1020.17 1020.51 1020.81 1021.07 1021.26 1021.37 1021.39 1021.35 1021.26 1021.14 1021.03 1020.93 1020.84 1020.75 1020.65 1020.52 1020.33 1020.07 1019.75 1019.38 1018.97 1018.54 1018.11 1017.69 1017.28 1016.87 1016.47 1016.04 1015.60 1015.13 1014.65 1014.17 1013.72 1013.31 1012.97 1012.71 1012.53 1012.44 1012.42 1012.47 1012.56 1012.67
1020.12 1020.46 1020.79 1021.09 1021.34 1021.51 1021.60 1021.61 1021.54 1021.42 1021.26 1021.09 1020.92 1020.76 1020.59 1020.40 1020.19 1019.95 1019.65 1019.32 1018.95 1018.57 1018.17 1017.77 1017.38 1016.99 1016.58 1016.16 1015.71 1015.24 1014.74 1014.23 1013.72 1013.24 1012.82 1012.45 1012.17 1011.96 1011.84 1011.79 1011.81 1011.88 1011.98
1020.45 1020.79 1021.11 1021.39 1021.62 1021.76 1021.83 1021.82 1021.73 1021.57 1021.38 1021.17 1020.93 1020.70 1020.45 1020.18 1019.90 1019.59 1019.26 1018.91 1018.54 1018.17 1017.80 1017.44 1017.07 1016.70 1016.30 1015.87 1015.40 1014.90 1014.36 1013.82 1013.29 1012.79 1012.34 1011.95 1011.65 1011.42 1011.26 1011.18 1011.16 1011.20 1011.29
1020.84 1021.16 1021.45 1021.70 1021.90 1022.01 1022.05 1022.00 1021.89 1021.71 1021.48 1021.22 1020.94 1020.64 1020.32 1019.98 1019.63 1019.25 1018.87 1018.49 1018.11 1017.75 1017.40 1017.05 1016.70 1016.34 1015.94 1015.50 1015.02 1014.49 1013.94 1013.37 1012.82 1012.30 1011.83 1011.44 1011.11 1010.86 1010.68 1010.56 1010.51 1010.53 1010.60
1021.26 1021.56 1021.82 1022.03 1022.17 1022.24 1022.24 1022.16 1022.01 1021.80 1021.55 1021.25 1020.92 1020.57 1020.18 1019.77 1019.35 1018.91 1018.47 1018.04 1017.63 1017.25 1016.89 1016.55 1016.20 1015.83 1015.43 1014.99 1014.49 1013.95 1013.38 1012.80 1012.24 1011.73 1011.26 1010.87 1010.54 1010.28 1010.09 1009.96 1009.89 1009.88 1009.94
1021.71 1021.97 1022.19 1022.34 1022.43 1022.45 1022.39 1022.27 1022.08 1021.84 1021.55 1021.23 1020.86 1020.45 1020.01 1019.54 1019.04 1018.53 1018.02 1017.54 1017.08 1016.66 1016.27 1015.90 1015.54 1015.16 1014.75 1014.30 1013.79 1013.25 1012.68 1012.11 1011.56 1011.06 1010.62 1010.24 1009.93 1009.69 1009.50 1009.36 1009.28 1009.26 1009.31
1022.16 1022.38 1022.54 1022.64 1022.67 1022.62 1022.51 1022.33 1022.10 1021.83 1021.51 1021.15 1020.74 1020.29 1019.80 1019.26 1018.69 1018.11 1017.53 1016.97 1016.45 1015.98 1015.54 1015.13 1014.74 1014.35 1013.92 1013.46 1012.96 1012.43 1011.88 1011.33 1010.81 1010.34 1009.93 1009.59 1009.32 1009.10 1008.94 1008.81 1008.73 1008.71 1008.74
1022.58 1022.76 1022.87 1022.91 1022.87 1022.75 1022.57 1022.34 1022.06 1021.75 1021.40 1021.01 1020.57 1020.08 1019.54 1018.95 1018.32 1017.67 1017.02 1016.39 1015.80 1015.26 1014.77 1014.32 1013.90 1013.48 1013.05 1012.59 1012.10 1011.59 1011.06 1010.55 1010.07 1009.65 1009.29 1008.99 1008.76 1008.58 1008.44 1008.33 1008.26 1008.22 1008.23
1022.97 1023.11 1023.16 1023.13 1023.02 1022.83 1022.59 1022.30 1021.97 1021.62 1021.23 1020.81 1020.35 1019.83 1019.25 1018.62 1017.94 1017.23 1016.52 1015.83 1015.19 1014.59 1014.06 1013.57 1013.12 1012.69 1012.26 1011.81 1011.34 1010.85 1010.36 1009.89 1009.46 1009.08 1008.76 1008.51 1008.32 1008.16 1008.04 1007.94 1007.86 1007.80 1007.78
1023.32 1023.41 1023.40 1023.31 1023.13 1022.87 1022.57 1022.22 1021.85 1021.46 1021.04 1020.59 1020.10 1019.56 1018.96 1018.30 1017.58 1016.84 1016.09 1015.36 1014.68 1014.05 1013.49 1012.98 1012.52 1012.09 1011.66 1011.23 1010.78 1010.33 1009.88 1009.45 1009.05 1008.71 1008.43 1008.20 1008.02 1007.88 1007.75 1007.64 1007.53 1007.43 1007.37
1023.63 1023.66 1023.60 1023.44 1023.20 1022.89 1022.52 1022.13 1021.71 1021.28 1020.84 1020.37 1019.86 1019.30 1018.69 1018.01 1017.29 1016.53 1015.76 1015.02 1014.32 1013.69 1013.12 1012.61 1012.16 1011.74 1011.33 1010.92 1010.51 1010.08 1009.67 1009.26 1008.89 1008.57 1008.30 1008.07 1007.88 1007.72 1007.57 1007.41 1007.25 1007.09 1006.96
Thickness
5726 5724 5721 5718 5716 5713 5711 5709 5708 5706 5704 5702 5700 5699 5697 5695 5693 5691 5689 5687 5686 5684 5683 5681 5680 5679 5678 5676 5675 5673 5672 5670 5668 5667 5665 5664 5663 5662 5661 5660 5660 5660 5660
5726 5722 5719 5716 5715 5712 5709 5706 5704 5702 5699 5697 5695 5693 5690 5687 5684 5682 5680 5679 5678 5677 5676 5674 5673 5671 5670 5668 5667 5665 5663 5661 5659 5657 5655 5654 5653 5652 5651 5650 5650 5650 5651
5726 5721 5716 5713 5711 5708 5704 5701 5697 5694 5691 5689 5686 5684 5682 5679 5676 5672 5670 5669 5669 5668 5667 5666 5665 5663 5661 5659 5657 5654 5652 5649 5647 5645 5643 5641 5640 5640 5639 5639 5638 5638 5639
5720 5714 5708 5705 5702 5699 5695 5691 5687 5683 5680 5677 5676 5674 5673 5671 5668 5665 5662 5660 5658 5658 5657 5656 5655 5653 5650 5648 5646 5643 5640 5637 5634 5632 5630 5628 5626 5625 5625 5624 5624 5624 5625
5712 5706 5700 5695 5692 5689 5685 5682 5676 5672 5668 5666 5666 5664 5661 5659 5656 5654 5651 5649 5646 5645 5644 5643 5642 5639 5636 5634 5632 5630 5627 5624 5622 5620 5617 5615 5612 5611 5609 5609 5609 5610 5611
5704 5698 5691 5687 5683 5679 5675 5671 5666 5661 5657 5655 5654 5652 5649 5646 5643 5639 5637 5634 5631 5629 5627 5625 5624 5622 5619 5617 5615 5614 5612 5610 5609 5606 5604 5602 5599 5596 5595 5593 5593 5594 5595
5694 5688 5682 5677 5673 5668 5663 5659 5654 5649 5644 5642 5640 5636 5635 5632 5629 5625 5622 5619 5616 5613 5611 5608 5605 5603 5601 5599 5597 5596 5595 5594 5594 5593 5590 5588 5585 5582 5580 5579 5578 5579 5580
5682 5676 5670 5664 5660 5655 5650 5645 5640 5634 5629 5626 5623 5619 5614 5614 5613 5612 5608 5605 5601 5598 5594 5591 5587 5584 5581 5580 5579 5578 5578 5577 5577 5577 5575 5573 5571 5568 5566 5565 5564 5564 5565
5668 5662 5657 5652 5647 5641 5635 5630 5625 5620 5613 5610 5607 5603 5597 5593 5592 5595 5592 5588 5584 5580 5577 5574 5571 5567 5565 5563 5561 5560 5560 5560 5560 5560 5559 5558 5556 5554 5552 5551 5551 5551 5552
5656 5649 5644 5639 5633 5628 5623 5618 5612 5608 5602 5596 5592 5588 5583 5579 5575 5573 5574 5571 5568 5564 5560 5558 5554 5552 5549 5547 5545 5544 5543 5543 5543 5543 5543 5543 5542 5541 5540 5539 5538 5539 5540
5643 5638 5632 5626 5620 5615 5610 5606 5601 5597 5591 5585 5579 5573 5568 5563 5559 5554 5553 5554 5552 5550 5546 5543 5539 5536 5533 5531 5529 5527 5526 5526 5526 5526 5527 5528 5528 5528 5528 5527 5528 5528 5530
5632 5627 5621 5614 5609 5604 5599 5594 5590 5586 5580 5574 5567 5561 5554 5548 5543 5538 5536 5535 5535 5535 5532 5528 5524 5520 5517 5514 5511 5510 5509 5508 5509 5509 5510 5511 5512 5514 5515 5516 5517 5519 5522
5621 5615 5609 5603 5598 5593 5589 5584 5579 5573 5567 5561 5555 5549 5543 5538 5533 5528 5524 5523 5521 5519 5516 5513 5508 5504 5501 5497 5494 5491 5491 5491 5492 5493 5493 5495 5496 5498 5501 5503 5507 5510 5514
5610 5604 5598 5592 5586 5581 5577 5571 5566 5560 5554 5548 5543 5538 5532 5528 5523 5517 5511 5508 5507 5506 5501 5497 5492 5486 5482 5479 5476 5474 5473 5473 5474 5476 5477 5479 5481 5484 5487 5491 5495 5500 5504
5599 5592 5586 5580 5575 5569 5563 5557 5551 5546 5540 5534 5529 5524 5519 5514 5509 5503 5496 5490 5486 5491 5493 5483 5474 5470 5464 5461 5459 5457 5456 5455 5456 5458 5460 5463 5467 5470 5474 5479 5483 5489 5494
5586 5580 5573 5567 5561 5555 5548 5541 5535 5529 5524 5518 5513 5508 5503 5498 5492 5486 5480 5474 5467 5463 5469 5466 5456 5450 5445 5442 5440 5438 5437 5436 5438 5440 5444 5448 5452 5457 5462 5467 5473 5478 5483
5574 5567 5560 5553 5546 5537 5530 5523 5516 5511 5506 5501 5496 5492 5486 5481 5476 5470 5464 5458 5450 5443 5445 5450 5439 5433 5427 5424 5422 5421 5421 5422 5424 5428 5432 5436 5441 5446 5451 5456 5462 5467 5472
5559 5552 5545 5536 5528 5519 5512 5506 5500 5495 5490 5485 5480 5475 5470 5466 5461 5455 5449 5443 5435 5428 5423 5428 5426 5418 5413 5410 5410 5410 5411 5413 5415 5419 5423 5428 5433 5437 5442 5447 5452 5456 5461
5542 5535 5527 5519 5510 5503 5496 5490 5484 5478 5473 5469 5465 5460 5457 5452 5448 5443 5437 5431 5424 5418 5411 5409 5413 5409 5405 5402 5401 5402 5403 5405 5408 5412 5417 5421 5425 5429 5434 5438 5442 5446 5450
5525 5517 5510 5502 5494 5488 5481 5475 5469 5464 5459 5456 5452 5449 5445 5441 5436 5432 5427 5420 5414 5408 5404 5402 5403 5402 5400 5398 5395 5396 5398 5400 5402 5406 5410 5414 5417 5421 5425 5429 5433 5436 5440
5508 5501 5494 5487 5479 5473 5467 5460 5455 5451 5446 5443 5440 5437 5434 5430 5427 5421 5416 5410 5405 5402 5400 5398 5399 5398 5397 5395 5394 5394 5396 5397 5400 5403 5406 5409 5412 5415 5418 5422 5426 5430 5434
5490 5484 5477 5471 5465 5460 5454 5448 5443 5437 5433 5430 5427 5425 5421 5418 5415 5411 5406 5403 5400 5398 5397 5396 5397 5397 5398 5396 5396 5395 5396 5398 5401 5404 5404 5408 5410 5412 5415 5418 5422 5426 5430
5474 5467 5462 5457 5451 5446 5441 5436 5430 5425 5420 5417 5414 5412 5410 5408 5405 5403 5401 5399 5397 5396 5397 5397 5399 5400 5399 5399 5398 5399 5400 5402 5405 5407 5405 5409 5411 5413 5416 5419 5422 5424 5426
5459 5453 5447 5443 5438 5434 5430 5424 5418 5412 5408 5405 5403 5402 5400 5400 5399 5398 5397 5398 5399 5400 5401 5402 5402 5403 5404 5404 5404 5405 5406 5408 5411 5413 5412 5414 5416 5417 5420 5421 5422 5423 5424
5445 5440 5435 5431 5426 5421 5416 5410 5405 5400 5397 5395 5395 5395 5395 5396 5396 5394 5395 5398 5401 5404 5407 5408 5408 5408 5408 5408 5408 5409 5411 5413 5417 5419 5418 5418 5419 5419 5420 5422 5423 5424 5424
5432 5427 5422 5418 5413 5407 5403 5398 5394 5390 5388 5389 5390 5391 5392 5393 5393 5394 5396 5399 5403 5407 5409 5411 5412 5412 5412 5411 5410 5410 5410 5412 5415 5418 5417 5416 5416 5416 5418 5420 5422 5423 5423